Weather in Kurilovo

Russia / Moscow Oblast     56°05′31″N   36°54′38″E
temp.,
°C
wind,
m/s
gust,
m/s
humid.,
%
clouds,
%
prec.,
mm/h
press.,
hPa
HPBL,
m
3 august, tue
tue300:00+18ssw51392100 0.9 1003636
03:00+16wsw412930 0.9 1004641
06:00+15wsw499539 0.0 1006495
09:00+19w466691 0.0 1007832
12:00+23wsw45466 0.0 10081669
15:00+21w5753100 0.0 10091317
18:00+22w484555 0.0 10092206
21:00+15wsw36701 0.0 1011110
4 august, wed
wed400:00+13wsw247851 0.0 101280
03:00+16w257199 0.0 1013144
06:00+15wnw1276100 0.0 101463
09:00+19nw235735 0.0 1015673
12:00+22w244584 0.0 10151866
15:00+18nw2466100 0.2 1015111
18:00+15se248779 0.9 1016119
21:00+13sse019165 0.9 101711
5 august, thu
thu500:00+12wsw119026 0.0 101710
03:00+12nnw118879 0.0 101810
06:00+14ese1179100 0.0 101824
09:00+19se2359100 0.0 1018459
12:00+21ese3348100 0.0 10181066
15:00+19ssw3463100 0.1 1018968
18:00+16s3678100 0.1 1017257
21:00+14ese2795100 0.8 1016330
6 august, fri
fri600:00+15se3799100 7.7 1015391
03:00+14ese41298100 14.3 1013735
06:00+14ese41198100 7.4 1012529
09:00+14ese5898100 14.3 1011410
12:00+14ese3699100 11.6 1011282
15:00+18ese4788100 13.3 1011497
18:00+16e369485 0.3 1010271
21:00+16e3699100 4.0 1010220
7 august, sat
sat700:00+16ese3799100 7.9 1011186
03:00+16e2898100 9.4 1010208
06:00+15ese4109553 0.3 1009321
09:00+19sse358297 0.3 1009363
12:00+23sse236783 0.0 1009524
15:00+26ssw3556100 0.0 10091413
18:00+18s1199100 6.4 101024
21:00+18se2398100 11.1 101082